Location: Holyhead Bay
(53.3667°N, 4.6667°W)
Time: 19:53:44
(UTC+00:00)

Envisat - Pass Details

Date: 24 November 2020
Orbit: 764 x 766 km, 98.1° (Epoch: 17 January)

Event Time Altitude Azimuth Distance (km) Brightness Sun altitude
Rises 17:36:57 0° 179° (S) 3,222 6.5 -12.4°
Reaches altitude 10° 17:39:18 10° 184° (S) 2,301 5.8 -12.7°
Maximum altitude 17:44:14 51° 261° (W) 960 4.0 -13.4°
Drops below altitude 10° 17:49:13 10° 337° (NNW) 2,318 5.6 -14.1°
Sets 17:51:37 0° 343° (NNW) 3,249 6.3 -14.5°
